User: anonymous   Login
Location: Anna District 4 Election Precinct
(37.4833°N, 89.2195°W)
Time: 01:33:24
(UTC+00:00)
Language:

NOAA 12 - Orbit

View from above orbital plane
View from above orbital plane
View from above satellite
View from above satellite

Ground track
Ground track

The orbit data is extracted from the following two-line orbital elements,

1 21263U 91032A   21136.90201303 -.00000007  00000-0  14989-4 0  9993
2 21263  98.5052 143.1168 0014729  62.3451 297.9223 14.25939735560219
Epoch (UTC): 16 May 2021 21:38:53
Eccentricity: 0.0014729
inclination: 98.5052°
perigee height: 795 km
apogee height: 816 km
right ascension of ascending node: 143.1168°
argument of perigee: 62.3451°
revolutions per day: 14.25939735
mean anomaly at epoch: 297.9223°
orbit number at epoch: 56021

The dashed part of the orbit path shows where the satellite is in the earth's shadow,  

DLR